041028 084  0.5-  0.1+    060501 084  0.7-  0.2-    070519 213  0.6-  0.1-  

041030 084  1.5-  0.4+    060501 084  0.4-  0.0     070519 213  0.9-  0.2-  

041102 084  1.0-  0.3-    060503 048  0.4+  0.2+    070519 213  0.7-  0.3-  

041114 151  0.1+  0.1-    060503 048  0.6+  0.6+    070520 850  0.1-  0.3-  

041114 151  0.2-  0.1-    060503 048  0.2+  0.6+    070520 850  0.1-  0.1-  

041114 151  0.2-  0.0     060503 048  0.5+  0.6+    070520 850  0.1+  0.0   

041114 151  0.4-  0.1+    060503 048  0.4+  0.1-    070520 850  0.0   0.4-  

041114 084  0.1-  0.1+    060503 084  0.6-  0.2+    070520 361  0.7-  1.0-  

041121 084  0.0   0.4+    060503 084  1.0-  0.4-    070520 361  0.1+  0.4+  

041122 084  0.5+  1.0+    060504 084  0.3-  0.1-    070521 850  0.1-  0.2-  

041125 084  0.1-  0.6+    060504 084  0.2-  0.1-    070521 850  0.5-  0.5-  

041212 084  1.4+  0.1+    060505 084  0.6-  0.5-    070521 850  0.5-  0.3-  

041212 084  0.0   1.1+    060505 084  0.5-  0.1+    070521 H47  0.1-  0.0   

041213 084  0.1+  0.4+    060506 704  0.8+  0.5+    070521 850  0.6-  0.3+  

041221 084  0.1-  0.4+    060506 704  0.6+  1.1-    070521 H47  0.9+  0.2+  

041231 084  0.0   0.3+    060506 704  0.4+  0.1+    070522 D88  1.1-  0.1+  

2005/                     060506 704  0.1+  0.3-    070522 D88  0.7-  0.7+  

050112 084  0.3-  0.8+    060506 084  0.7-  0.5-    070522 D88  0.5-  0.3-  

050115 673  0.3+  0.6+    060506 084  0.6-  0.3+    070524 213  0.1+  0.5+  

050115 673  0.4+  0.6+    060507 084  0.0   0.0     070524 213  0.1-  0.2+  

050115 673  0.3+  0.7+    060507 084  0.3-  0.4-    070524 213  0.2-  0.5+  

050115 673  0.5+  0.8+    060508 084  0.3-  0.3-    070524 A03  0.2+  0.8+  

050116 673  0.1+  0.8+    060508 084  0.3-  0.2-    070524 A03  0.2-  0.2+  

050116 673  0.3+  0.6+    060509 084  0.8-  0.0     070524 A03  0.6+  1.0+  

050116 673  0.5+  0.5+    060509 084  0.1-  0.1-    070525 J64  1.0+  0.3-  

050116 673  0.3+  0.5+    060511 084  0.6-  0.3-    070525 J64  1.1+  0.1+  

050127 084  0.3+  1.0+    060511 084  0.6-  0.2-    070525 J64  0.9+  0.5+  

050127 084  0.4+  0.7+    060513 213  1.4+  0.4+    070527 J67  0.4-  0.4-  

050129 704 (0.1-  2.6+)   060513 213  1.1+  0.1+    070527 J67  0.3-  0.5-  

050129 704  0.2+  1.7+    060513 A50  0.3-  0.1-    070527 J67  0.1+  0.4-  

050129 704  0.2+  0.5+    060513 A50  0.6-  0.3-    070527 349  0.3+  0.5-  

050129 704 (1.5+  2.8+)   060513 A50  0.3-  0.3-    070527 349  0.4+  0.3-  

050129 704 (2.1+  1.0+)   060513 A50  0.4-  0.3-    070527 349  0.4+  0.6-  

050203 084  0.8+  1.1+    060513 A50  0.0   0.3-    070530 224  0.2-  0.4+  

050203 084  0.0   0.5+    060513 A50  0.4-  0.0     070530 224  0.1+  0.4+  

050209 084  0.9-  0.4+    060513 A50  0.0   0.7+    070530 224  0.1-  0.4+  

050209 084  0.8-  0.0     060513 A50  0.2-  0.0     070601 J70  1.7+  1.9+  

050209 084  0.0   0.4+    060513 A50  0.9-  0.7-    070601 J70  0.4+  1.1-  

050209 084  0.6+  0.3+    060513 A50  0.3-  0.0     070601 J70  0.7-  0.4-  

050212 084  0.2+  0.3-    060513 A50  0.5-  0.1-    070601 J70 (5.0+  3.7+) 

050212 084  0.1+  0.2-    060514 084  0.4-  0.4-    070601 J70  0.6+  1.5-  

050221 084  0.9+  0.3+    060514 084  0.2-  0.6-    070602 D88  0.3-  0.2-  

050221 084  0.5+  0.2+    060515 A50  1.1-  0.2+    070602 D88  0.3-  0.5+  

050224 084  0.2+  0.2+    060515 A50  0.5-  0.5+    070602 D88  0.2+  0.2+  

050224 084  0.1+  0.1-    060515 A50  1.2-  0.1+    070610 D88  0.4-  0.3+  

050224 084  0.4-  0.3+    060515 A50  0.3-  0.0     070610 D88  0.2+  1.0+  

050224 084  0.0   0.2+    060515 A50  0.6-  0.0     070610 A03  0.1+  0.8+  

050225 084  0.1+  0.5+    060515 A50  0.5-  0.0     070610 A03  0.0   0.7+  

050225 084  0.2+  0.2+    060515 A50  0.6-  0.1-    070610 A03  0.1+  0.5+  

050309 084  0.4+  0.5+    060515 084  0.8-  0.5-    070610 J49  1.0-  0.1+  

050309 084  0.1+  0.8+    060515 084  0.5-  0.0     070610 J49  1.3-  0.0   

050316 084  0.2+  0.2+    060519 704  0.0   0.7+    070610 J49  1.4-  0.3-  

050316 084  0.1+  0.6+    060519 704  0.4+  0.4+    070612 D88  0.8+  0.1+  

050320 084  0.3+  0.5+    060519 704  0.2+  0.8-    070612 D88  0.2+  0.3+  

050328 084  0.2-  0.5-    060519 704  0.4-  0.5-    070612 D88  0.5+  0.4+  

050328 084  0.1-  0.8-    060521 232  0.3+  0.1-    070612 213  0.3-  0.7+  

050330 084  0.6-  0.3-    060521 232  0.3+  0.0     070612 213  0.5+  0.7+  

050330 084  0.4-  0.0     060521 232  0.6+  0.0     070612 213  0.0   0.7+  

050331 084  0.4+  0.0     060527 232  0.5+  0.1+    070615 688  0.6-  0.0   

050331 084  0.6+  0.2+    060527 232  0.9+  0.2+    070615 688  0.6-  0.3+  

050402 215  0.1+  0.2+    060527 232  0.4+  0.1+    070621 703  0.2-  0.4-  

050402 215  0.4+  0.3+    060531 349  0.6+  1.3+    070621 703  1.3-  0.4+  

050402 215  0.3+  0.7-    060531 349  0.7+  0.8+    070621 703  1.6-  0.8+  

050414 084  0.1-  0.4+    060531 561  0.2-  0.4-    070621 703  0.0   0.1+  

050414 084  0.2+  1.0+    060531 561  0.2-  0.4-    070622 939  1.1+  0.6+  

050416 084  0.3+  0.2+    060531 561  0.2-  0.5-    070622 939  1.2+  0.3+  

050417 084  0.4+  0.4+    060602 232  0.6+  0.4+    070622 939  1.0+  0.3+  

050417 084  0.6+  0.7+    060602 232  0.6+  0.4+    070627 A77  0.4-  0.4+  

050419 084  0.4+  0.3+    060603 232  0.6+  0.1+    070627 A77  0.5-  0.1-  

050419 084  0.2-  0.3+    060603 939  0.8+  0.3+    070627 A77  0.1+  1.2+  

050517 A32  0.3-  0.4+    060603 939  0.6+  0.3+    070627 A77  0.2-  0.2+  

050517 A32  0.3-  0.5+    060603 939  0.5+  0.2+    070627 A77  0.1-  0.0   

050517 A32  0.2-  0.3+    060604 J64  1.2+  1.1+    070627 A77  0.1-  0.3+  

050517 A32  0.4-  0.3+    060604 J64  1.7+  0.7+    070627 A77  1.6+  0.9+  

050518 A32  0.5-  0.3+    060604 J64  0.9+  0.1+    070707 232  0.4+  0.9+  

050801 084  0.5-  0.4-    060605 J97  0.8+  0.4+    070707 232  0.4+  0.4+  

050801 084  0.2-  0.5-    060610 204  0.1-  0.1-    070707 232  0.3+  0.2-  

050803 084  0.4-  0.5+    060610 232  0.8+  0.1-    070707 204  0.0   0.2+  

050803 084  1.1-  0.2+    060610 232  0.3+  0.0     070713 A01  0.3+  0.2+  

050808 084  0.1-  0.2+    060610 939  0.2-  0.4+    070713 A01  0.3-  0.9+  

050808 084  0.3-  0.4+    060610 232  0.1-  0.1+    070713 A01 (0.3+  2.1-) 

050818 084  0.2-  0.6+    060610 213  0.4-  1.2-    070723 118  0.5+  0.4-  

050818 084  0.4-  0.3+    060610 213  0.3-  1.0-    070723 118  0.7+  0.2-  

050819 084  0.0   0.1-    060610 213  0.4-  1.0-    070725 204  0.3+  0.2-  

050819 084  0.3-  0.2-    060610 939  0.3-  0.1+    070725 204  0.0   0.9+  

050820 084  0.3+  1.0+    060610 939  0.3-  0.2+    070731 204  0.0   0.1+  

050820 084  0.1-  0.1-    060610 204  0.2-  0.0     071207 349  0.6+  0.1+  

050822 084  0.3-  0.4-    060611 118  0.5-  0.0     071208 349  1.1+  0.5-  

050822 084  0.7-  0.3-    060611 118  0.4-  0.2+    071208 349  0.9+  0.4-  

050822 084  0.1-  0.9-    060611 118  0.1+  0.3+    2008/                   

050822 084  0.5-  0.3+    060611 118  0.3-  0.2+    080130 349  0.8+  0.3+  

050823 084  0.3-  0.2-    060611 118  0.2-  0.1-    080207 349  0.2+  0.2-  



NAKANO

         **** Don't distribute anyone except personal use only ****

                (C) Copyright 2008 OAA/ComputingSection

write mail from CFAD0::NAKANO on 2008-02-15 03:48:10(JST).





    C/2002 VQ94 (LINEAR)

Epoch 2006 Jan. 25.0 TT = JDT 2453760.5  

T 2006 Feb. 6.65230 TT                                  Nakano

q   6.7966218            (2000.0)            P               Q

z  +0.0048722      Peri.  100.03712     -0.33120306     -0.77309379

 +/-0.0000005      Node    35.01661     -0.21422021     -0.49673074

e   0.9668855      Incl.   70.51574     +0.91892015     -0.39444210

From 730 observations 2001 Oct. 27-2007 Feb. 7, mean residual 0".51.

   (1/a)org.= +0.005291, (1/a)fut.= +0.005396 (+/-0.000001), Q= 9.





NAKANO

         **** Don't distribute anyone except personal use only ****

                (C) Copyright 2007 OAA/ComputingSection

write mail from CFAD0::NAKANO on 2007-02-11 07:48:26(JST).

 

    C/2002 VQ94 (LINEAR):  Orbit for YC not including MPEC 2005-Y55.

Epoch 2006 Jan. 25.0 TT = JDT 2453760.5  

T 2006 Feb. 6.64935 TT                                  Nakano

q   6.7966379            (2000.0)            P               Q

z  +0.0048712      Peri.  100.03689     -0.33119994     -0.77309535

 +/-0.0000009      Node    35.01659     -0.21421790     -0.49673139

e   0.9668922      Incl.   70.51573     +0.91892181     -0.39443822

From 425 observations 2001 Oct. 27-2005 Dec. 20, mean residual 0".50.

   (1/a)org.= +0.000000, (1/a)fut.= +0.005392 (+/-0.000001), Q= 9.



NAKANO

         **** Don't distribute anyone except personal use only ****

                (C) Copyright 2006 OAA/ComputingSection

write mail from CFAD0::NAKANO on 2006-01-01 05:08:27(JST).









    C/2002 VQ94 (LINEAR)                                                  

Epoch 2006 Jan. 25.0 TT = JDT 2453760.5  

T 2006 Feb. 6.64480 TT                                  Nakano

q   6.7966635            (2000.0)            P               Q

z  +0.0048688      Peri.  100.03655     -0.33119531     -0.77309744

 +/-0.0000010      Node    35.01658     -0.21421480     -0.49673255

e   0.9669083      Incl.   70.51572     +0.91892420     -0.39443265

From 334 observations 2001 Oct. 27-2005 Oct. 16, mean residual 0".49.

   (1/a)org.= +0.005284, (1/a)fut.= +0.005390 (+/-0.000001), Q= 8.



NAKANO

         **** Don't distribute anyone except personal use only ****

                (C) Copyright 2005 OAA/ComputingSection

write mail from CFAD0::NAKANO on 2005-11-03 23:34:28(JST).

 

    C/2002 VQ94 (LINEAR)                                                  

Epoch 2006 Jan. 25.0 TT = JDT 2453760.5  

T 2006 Feb. 6.65596 TT                                  Nakano

q   6.7965772            (2000.0)            P               Q

